Weather observations for the past three days for
Noorvik
Metric (Imperial)
Date Time (akdt) Wind (kph) Vis. (km) Weather Sky Cond. Temperature (ºC) Relative Humidity Wind Chill (°C) Heat Index (°C) Pressure Precipitation (cm)
Air Dwpt 6 hour altimeter (cm) sea level (mb) 1 hr 3 hr 6 hr
Max. Min.
16 04:56 NW 15 16.09 Fair CLR 8.9 5.6 80% 7 76.78 1031.8
16 03:56 NW 15 16.09 Fair CLR 8.9 5.6 16.7 8.3 80% 7 76.76 1031.7
16 02:56 W 13 16.09 Fair CLR 9.4 6.7 83% 8 76.78 1032.0
16 01:56 W 17 16.09 Fair CLR 10.6 6.7 77% 76.78 1031.9
16 00:56 NW 17 16.09 Fair CLR 11.7 6.7 72% 76.78 1031.8
15 23:56 W 17 16.09 Fair CLR 13.3 6.1 62% 76.78 1031.7
15 22:56 NW 19 14.48 Fair CLR 15.6 5.6 52% 76.76 1031.4
15 21:56 NW 20 16.09 Fair CLR 16.7 3.9 17.2 14.4 43% 76.76 1031.4
15 20:56 NW 13 16.09 Fair CLR 17.2 5 45% 76.76 1031.4
15 19:56 NW 17 16.09 Fair CLR 16.7 5.6 48% 76.78 1031.7
15 18:56 NW 17 9.66 Fair with Haze CLR 16.7 5.6 48% 76.81 1032.2
15 17:56 NW 19 16.09 Fair CLR 16.1 5.6 50% 76.84 1032.5
15 16:56 W 19 G 30 16.09 Fair CLR 15.6 5 50% 76.84 1032.7
15 15:56 W 20 16.09 Fair CLR 15.6 5.6 15.6 10 52% 76.86 1032.9
15 14:56 W 19 16.09 Fair CLR 15 5 51% 76.86 1033.0
15 13:56 Vrbl 11 16.09 Fair CLR 13.3 4.4 55% 76.89 1033.2
15 12:56 NW 19 16.09 Fair CLR 12.2 4.4 59% 76.91 1033.6
15 11:56 NW 19 16.09 Fair CLR 12.2 4.4 59% 76.91 1033.8
15 10:56 W 13 16.09 Fair CLR 11.1 3.9 61% 76.94 1034.0
15 09:56 W 15 16.09 Fair CLR 10.6 3.9 10.6 6.1 64% 76.96 1034.2
15 08:56 NW 11 16.09 Fair CLR 8.9 3.9 71% 7 76.96 1034.2
15 07:56 NW 9 16.09 Fair CLR 8.3 4.4 77% 7 76.94 1034.0
15 06:56 NW 9 16.09 Fair CLR 7.2 6.1 93% 6 76.94 1034.1
15 05:56 W 6 16.09 Fair CLR 6.7 6.7 100% 76.94 1034.1
15 04:56 NW 7 16.09 Fair CLR 7.2 6.1 93% 6 76.94 1033.9
15 03:56 NW 9 16.09 Fair CLR 6.7 5.6 10.6 6.7 93% 5 76.94 1033.8
15 02:56 W 9 16.09 Fair CLR 7.2 5 86% 6 76.91 1033.7
15 01:56 W 11 16.09 Fair CLR 8.3 4.4 77% 7 76.91 1033.7
15 00:56 W 9 16.09 Fair CLR 9.4 3.9 69% 8 76.91 1033.5
14 23:56 W 11 16.09 Fair CLR 10 3.3 63% 9 76.89 1033.2
14 22:56 W 15 16.09 Fair CLR 10.6 2.8 59% 76.89 1033.2
14 21:56 NW 17 16.09 Fair CLR 10.6 2.8 12.2 10 59% 76.86 1033.0
14 20:56 NW 20 16.09 Fair CLR 10.6 2.8 59% 76.86 1033.0
14 19:56 W 17 16.09 Fair CLR 11.7 3.3 57% 76.86 1032.8
14 18:56 W 17 16.09 A Few Clouds FEW033 11.7 3.9 59% 76.86 1033.1
14 17:56 NW 20 G 30 16.09 Fair CLR 11.1 3.3 59% 76.89 1033.2
14 16:56 W 13 16.09 Partly Cloudy SCT026 10.6 3.9 64% 76.89 1033.4
14 15:56 W 20 16.09 Overcast OVC028 10 3.9 10.6 8.3 66% 8 76.91 1033.8
14 14:56 W 13 16.09 Overcast OVC026 10 3.9 66% 8 76.91 1033.6
14 13:56 W 17 16.09 Overcast OVC024 9.4 3.9 69% 7 76.91 1033.7
14 12:56 W 19 16.09 Overcast OVC026 8.9 4.4 74% 6 76.91 1033.4
14 11:56 W 9 16.09 Overcast BKN022 OVC028 8.9 3.9 71% 8 76.89 1033.4
14 10:56 W 20 16.09 Overcast OVC020 8.3 4.4 77% 5 76.91 1033.5
14 09:56 W 15 16.09 Fair CLR 8.9 4.4 8.9 6.1 74% 7 76.89 1033.1
14 08:56 SW 20 16.09 Mostly Cloudy BKN038 8.9 4.4 74% 6 76.86 1033.0
14 07:56 W 17 16.09 Fair CLR 8.3 4.4 77% 6 76.84 1032.7
14 06:56 SW 11 16.09 Fair CLR 7.2 5 86% 5 76.81 1032.3
14 05:56 SW 11 16.09 Fair CLR 6.1 5 93% 4 76.78 1032.0
14 04:56 SW 9 16.09 Fair CLR 6.7 5.6 93% 5 76.76 1031.6
14 03:56 S 11 16.09 Fair CLR 6.7 5 11.1 6.1 89% 5 76.73 1031.3
14 02:56 S 9 16.09 Fair CLR 7.2 5.6 90% 6 76.73 1031.2
14 01:56 SE 7 16.09 Fair CLR 8.9 5.6 80% 8 76.71 1030.9
14 00:56 E 9 16.09 Fair CLR 10 5 71% 9 76.68 1030.8
13 23:56 Calm 16.09 Fair CLR 10.6 4.4 66% 76.71 1030.9
13 22:56 Calm 16.09 Fair CLR 10.6 4.4 66% 76.68 1030.7
13 21:56 Calm 14.48 Fair CLR 11.1 4.4 11.7 9.4 64% 76.68 1030.7
13 20:56 W 6 12.87 Overcast OVC048 11.1 4.4 64% 76.71 1030.8
13 19:56 Calm 16.09 Overcast OVC048 10.6 3.9 64% 76.71 1031.0
13 18:56 W 9 16.09 Overcast OVC048 10 3.9 66% 9 76.73 1031.3
13 17:56 SW 9 16.09 Overcast OVC050 10 5 71% 9 76.73 1031.3
13 16:56 SW 15 16.09 Overcast OVC050 10.6 5 69% 76.73 1031.3
13 15:56 W 7 16.09 Overcast OVC055 9.4 5.6 9.4 4.4 77% 9 76.73 1031.3 0.03
13 14:56 W 15 16.09 Overcast BKN011 OVC049 8.3 5 80% 6 76.73 1031.4
13 13:56 W 15 16.09 Overcast OVC009 6.7 5 89% 4 76.76 1031.7
13 12:56 W 13 16.09 Overcast OVC007 5.6 3.9 89% 3 76.76 1031.6 0.03
13 11:56 W 13 16.09 Overcast OVC007 4.4 3.9 97% 2 76.76 1031.6 0.03
13 10:56 W 20 12.87 Light Rain OVC007 4.4 3.9 97% 1 76.73 1031.2
13 09:56 W 19 16.09 Overcast OVC007 5 3.9 5.6 5 93% 2 76.71 1031.0
13 08:56 W 19 16.09 Light Rain OVC009 5.6 3.3 85% 2 76.66 1030.3
13 07:56 W 17 16.09 Overcast SCT009 OVC049 5.6 3.9 89% 3 76.63 1030.0
13 06:56 W 17 16.09 Overcast FEW010 BKN080 OVC095 5 2.8 86% 2 76.61 1029.7
13 05:56 W 17 16.09 Overcast BKN080 OVC095 5 2.8 86% 2 76.58 1029.3
Date Time (akdt) Wind (kph) Vis. (km) Weather Sky Cond. Air Dwpt Max. Min. Relative Humidity Wind Chill (°C) Heat Index (°C) altimeter (cm) sea level (mb) 1 hr 3 hr 6 hr
6 hour
Temperature (ºC) Pressure Precipitation (cm)